Home   Weather   Denver   Past weeks
Flag for USA

Past Weather in Denver, Colorado, USA — Yesterday and Last 2 Weeks

Now
40 °F

Mostly cloudy.


Feels Like: 34 °F
Forecast: 47 / 36 °F
Wind: 8 mph from Southeast

Location: Buckley Air Force Base

Current Time: May 23, 2019 at 9:02:56 am

Latest Report: May 23, 2019 at 7:58 am


Visibility: 10 mi

Pressure: 30.08 "Hg (24.72 "Hg at 1593m altitude)

Humidity: 83%

Dew Point: 35 °F

Location of DenverLocation

Past Weather in Denver — Graph

°F

Denver Temperature Yesterday

Maximum temperature yesterday: 50 °F (at 4:58 pm)
Minimum temperature yesterday: 30 °F (at 4:58 am)
Average temperature yesterday: 42 °F

High & Low Weather Summary for the Past Weeks

 TemperatureHumidityPressure
High82 °F (May 15, 2:58 pm)100% (May 8, 6:58 am)30.18 "Hg (May 8, 6:58 am)
Low30 °F (May 9, 6:43 am)16% (May 15, 4:58 pm)29.30 "Hg (May 17, 12:58 pm)
Average48 °F70%29.82 "Hg
* Reported May 8 6:58 am — May 23 6:58 am, Denver. Weather by CustomWeather, © 2019

Note: Actual official high and low records may vary slightly from our data, if they occured in-between our weather recording intervals... More about our weather records

Advertising

Denver Weather History for the Previous 24 Hours

Scroll right to see more
 ConditionsComfort  
Time TempWeatherWind HumidityBarometerVisibility
6:58 am
Thu, May 23
39 °FCloudy.8 mph84%30.07 "Hg10 mi
5:58 am38 °FMostly cloudy.6 mph94%30.07 "Hg10 mi
4:58 am39 °FMostly cloudy.9 mph86%30.06 "Hg10 mi
3:58 am40 °FOvercast.5 mph94%30.04 "Hg10 mi
2:58 am40 °FPassing clouds.3 mph93%30.03 "Hg10 mi
1:58 am40 °FOvercast.3 mph91%30.04 "Hg10 mi
12:58 am40 °FOvercast.9 mph89%30.04 "Hg10 mi
11:58 pm
Wed, May 22
41 °FPartly cloudy.3 mph96%30.03 "Hg10 mi
10:58 pm41 °FOvercast.7 mph94%30.01 "Hg10 mi
9:58 pm42 °FOvercast.9 mph87%30.00 "Hg10 mi
9:26 pm43 °FOvercast.7 mph81%29.98 "Hg10 mi
8:58 pm43 °FOvercast.8 mph76%29.97 "Hg10 mi
7:58 pm46 °FOvercast.No wind67%29.93 "Hg10 mi
6:58 pm46 °FMostly cloudy.5 mph65%29.91 "Hg10 mi
5:58 pm46 °FMostly cloudy.5 mph67%29.92 "Hg10 mi
4:58 pm50 °FPartly sunny.7 mph56%29.87 "Hg10 mi
3:58 pm48 °FPartly sunny.6 mph54%29.86 "Hg10 mi
2:58 pm47 °FPartly sunny.10 mph61%29.84 "Hg10 mi
1:58 pm47 °FPartly sunny.10 mph61%29.82 "Hg10 mi
12:58 pm44 °FPartly sunny.12 mph66%29.80 "Hg10 mi
11:58 am45 °FPartly sunny.12 mph62%29.77 "Hg10 mi
10:58 am46 °FBroken clouds.9 mph62%29.72 "Hg10 mi
9:58 am43 °FScattered clouds.12 mph63%29.71 "Hg10 mi
Weather by CustomWeather, © 2019

See weather overview